Time,TemperatureF,DewpointF,PressureIn,WindDirection,WindDirectionDegrees,WindSpeedMPH,WindSpeedGustMPH,Humidity,HourlyPrecipIn,Conditions,Clouds,dailyrainin,SoftwareType,DateUTC
2013-12-13 00:02:00,24.4,22.0,30.24,WNW,285,0.0,-999.0,90,-99.99,,,0.00,weatherlink.com 1.10,2013-12-13 05:02:00,
2013-12-13 00:17:00,24.4,22.0,30.24,WNW,284,0.0,-999.0,91,-99.99,,,0.00,weatherlink.com 1.10,2013-12-13 05:17:00,
2013-12-13 00:32:00,24.2,22.0,30.23,WNW,284,0.0,-999.0,91,-99.99,,,0.00,weatherlink.com 1.10,2013-12-13 05:32:00,
2013-12-13 00:47:00,23.9,22.0,30.24,WNW,285,0.0,-999.0,91,-99.99,,,0.00,weatherlink.com 1.10,2013-12-13 05:47:00,
2013-12-13 01:02:00,23.6,21.0,30.23,WNW,285,0.0,-999.0,91,-99.99,,,0.00,weatherlink.com 1.10,2013-12-13 06:02:00,
2013-12-13 01:17:00,23.4,21.0,30.22,WNW,285,0.0,-999.0,91,-99.99,,,0.00,weatherlink.com 1.10,2013-12-13 06:17:00,
2013-12-13 01:32:00,23.3,21.0,30.22,WNW,285,0.0,-999.0,91,-99.99,,,0.00,weatherlink.com 1.10,2013-12-13 06:32:00,
2013-12-13 01:47:00,23.1,21.0,30.21,WNW,284,0.0,-999.0,91,-99.99,,,0.00,weatherlink.com 1.10,2013-12-13 06:47:00,
2013-12-13 02:02:00,23.0,21.0,30.22,WNW,284,0.0,-999.0,92,-99.99,,,0.00,weatherlink.com 1.10,2013-12-13 07:02:00,
2013-12-13 02:17:00,22.7,21.0,30.23,WNW,285,0.0,-999.0,91,-99.99,,,0.00,weatherlink.com 1.10,2013-12-13 07:17:00,
2013-12-13 02:32:00,22.5,21.0,30.23,WNW,285,0.0,-999.0,92,-99.99,,,0.00,weatherlink.com 1.10,2013-12-13 07:32:00,
2013-12-13 02:47:00,22.5,21.0,30.24,WNW,285,0.0,-999.0,92,-99.99,,,0.00,weatherlink.com 1.10,2013-12-13 07:47:00,
2013-12-13 03:02:00,22.2,20.0,30.24,WNW,285,0.0,-999.0,92,-99.99,,,0.00,weatherlink.com 1.10,2013-12-13 08:02:00,
2013-12-13 03:17:00,22.3,20.0,30.24,WNW,284,0.0,-999.0,92,-99.99,,,0.00,weatherlink.com 1.10,2013-12-13 08:17:00,
2013-12-13 03:32:00,22.0,20.0,30.25,WNW,285,0.0,-999.0,92,-99.99,,,0.00,weatherlink.com 1.10,2013-12-13 08:32:00,
2013-12-13 03:47:00,21.8,20.0,30.25,WNW,285,0.0,-999.0,92,-99.99,,,0.00,weatherlink.com 1.10,2013-12-13 08:47:00,
2013-12-13 04:02:00,21.5,20.0,30.24,WNW,285,0.0,-999.0,92,-99.99,,,0.00,weatherlink.com 1.10,2013-12-13 09:02:00,
2013-12-13 04:17:00,21.4,20.0,30.23,WNW,284,0.0,-999.0,92,-99.99,,,0.00,weatherlink.com 1.10,2013-12-13 09:17:00,
2013-12-13 04:32:00,21.3,19.0,30.24,WNW,285,0.0,-999.0,92,-99.99,,,0.00,weatherlink.com 1.10,2013-12-13 09:32:00,
2013-12-13 04:47:00,21.3,19.0,30.23,WNW,285,0.0,-999.0,92,-99.99,,,0.00,weatherlink.com 1.10,2013-12-13 09:47:00,
2013-12-13 05:02:00,21.1,19.0,30.24,WNW,285,0.0,-999.0,92,-99.99,,,0.00,weatherlink.com 1.10,2013-12-13 10:02:00,
2013-12-13 05:17:00,20.9,19.0,30.24,WNW,285,0.0,-999.0,92,-99.99,,,0.00,weatherlink.com 1.10,2013-12-13 10:17:00,
2013-12-13 05:32:00,20.7,19.0,30.24,WNW,284,0.0,-999.0,92,-99.99,,,0.00,weatherlink.com 1.10,2013-12-13 10:32:00,
2013-12-13 05:47:00,20.6,19.0,30.24,WNW,285,0.0,-999.0,92,-99.99,,,0.00,weatherlink.com 1.10,2013-12-13 10:47:00,
2013-12-13 06:02:00,20.8,19.0,30.25,WNW,284,0.0,-999.0,92,-99.99,,,0.00,weatherlink.com 1.10,2013-12-13 11:02:00,
2013-12-13 06:17:00,20.6,19.0,30.25,WNW,285,0.0,-999.0,92,-99.99,,,0.00,weatherlink.com 1.10,2013-12-13 11:17:00,
2013-12-13 06:32:00,20.4,19.0,30.25,WNW,285,0.0,-999.0,92,-99.99,,,0.00,weatherlink.com 1.10,2013-12-13 11:32:00,
2013-12-13 06:47:00,20.2,18.0,30.25,WNW,284,0.0,-999.0,92,-99.99,,,0.00,weatherlink.com 1.10,2013-12-13 11:47:00,
2013-12-13 07:02:00,20.0,18.0,30.25,WNW,284,0.0,-999.0,92,-99.99,,,0.00,weatherlink.com 1.10,2013-12-13 12:02:00,
2013-12-13 07:17:00,19.9,18.0,30.25,WNW,284,0.0,-999.0,92,-99.99,,,0.00,weatherlink.com 1.10,2013-12-13 12:17:00,
2013-12-13 07:32:00,19.9,18.0,30.26,WNW,285,0.0,-999.0,92,-99.99,,,0.00,weatherlink.com 1.10,2013-12-13 12:32:00,
2013-12-13 07:47:00,20.0,18.0,30.26,WNW,285,0.0,-999.0,92,-99.99,,,0.00,weatherlink.com 1.10,2013-12-13 12:47:00,
2013-12-13 08:02:00,21.0,19.0,30.27,WNW,284,0.0,-999.0,93,-99.99,,,0.00,weatherlink.com 1.10,2013-12-13 13:02:00,
2013-12-13 08:17:00,22.6,21.0,30.27,WNW,284,0.0,-999.0,93,-99.99,,,0.00,weatherlink.com 1.10,2013-12-13 13:17:00,
2013-12-13 08:32:00,26.3,25.0,30.28,WNW,285,0.0,-999.0,95,-99.99,,,0.00,weatherlink.com 1.10,2013-12-13 13:32:00,
2013-12-13 08:47:00,28.6,27.0,30.28,WNW,285,0.0,-999.0,95,-99.99,,,0.00,weatherlink.com 1.10,2013-12-13 13:47:00,
2013-12-13 09:02:00,30.1,28.0,30.27,WNW,285,0.0,-999.0,93,-99.99,,,0.00,weatherlink.com 1.10,2013-12-13 14:02:00,
2013-12-13 09:17:00,31.0,29.0,30.27,WNW,285,0.0,-999.0,91,-99.99,,,0.00,weatherlink.com 1.10,2013-12-13 14:17:00,
2013-12-13 09:32:00,33.5,31.0,30.26,WNW,284,0.0,-999.0,91,-99.99,,,0.00,weatherlink.com 1.10,2013-12-13 14:32:00,
2013-12-13 09:47:00,37.3,34.0,30.26,WNW,285,0.0,-999.0,86,-99.99,,,0.00,weatherlink.com 1.10,2013-12-13 14:47:00,
2013-12-13 10:02:00,38.8,32.0,30.26,WNW,285,0.0,-999.0,76,-99.99,,,0.00,weatherlink.com 1.10,2013-12-13 15:02:00,
2013-12-13 10:17:00,40.7,33.0,30.26,South,177,3.0,-999.0,73,-99.99,,,0.00,weatherlink.com 1.10,2013-12-13 15:17:00,
2013-12-13 10:32:00,42.0,34.0,30.27,South,178,0.0,-999.0,73,-99.99,,,0.00,weatherlink.com 1.10,2013-12-13 15:32:00,
2013-12-13 10:47:00,43.2,33.0,30.27,South,176,0.0,-999.0,67,-99.99,,,0.00,weatherlink.com 1.10,2013-12-13 15:47:00,
2013-12-13 11:02:00,44.0,32.0,30.26,South,182,2.0,-999.0,62,-99.99,,,0.00,weatherlink.com 1.10,2013-12-13 16:02:00,
2013-12-13 11:17:00,45.1,32.0,30.25,SSE,153,0.0,-999.0,60,-99.99,,,0.00,weatherlink.com 1.10,2013-12-13 16:17:00,
2013-12-13 11:32:00,48.2,33.0,30.25,ESE,123,0.0,-999.0,56,-99.99,,,0.00,weatherlink.com 1.10,2013-12-13 16:32:00,
2013-12-13 11:47:00,49.0,31.0,30.24,ESE,123,1.0,-999.0,51,-99.99,,,0.00,weatherlink.com 1.10,2013-12-13 16:47:00,
2013-12-13 12:03:00,50.1,31.0,30.23,SSE,155,1.0,-999.0,48,-99.99,,,0.00,weatherlink.com 1.10,2013-12-13 17:03:00,
2013-12-13 12:17:00,50.3,30.0,30.22,SSE,165,5.0,-999.0,45,-99.99,,,0.00,weatherlink.com 1.10,2013-12-13 17:17:00,
2013-12-13 12:32:00,51.5,29.0,30.20,South,189,0.0,-999.0,43,-99.99,,,0.00,weatherlink.com 1.10,2013-12-13 17:32:00,
2013-12-13 12:47:00,52.6,30.0,30.20,ESE,121,1.0,-999.0,43,-99.99,,,0.00,weatherlink.com 1.10,2013-12-13 17:47:00,
2013-12-13 13:02:00,53.1,28.0,30.19,East,94,4.0,-999.0,38,-99.99,,,0.00,weatherlink.com 1.10,2013-12-13 18:02:00,
2013-12-13 13:17:00,53.3,28.0,30.18,SSE,168,3.0,-999.0,38,-99.99,,,0.00,weatherlink.com 1.10,2013-12-13 18:17:00,
2013-12-13 13:32:00,53.8,29.0,30.18,SSE,161,2.0,-999.0,38,-99.99,,,0.00,weatherlink.com 1.10,2013-12-13 18:32:00,
2013-12-13 13:47:00,53.9,30.0,30.17,SSE,153,3.0,-999.0,40,-99.99,,,0.00,weatherlink.com 1.10,2013-12-13 18:47:00,
2013-12-13 14:02:00,54.1,29.0,30.17,South,169,0.0,-999.0,38,-99.99,,,0.00,weatherlink.com 1.10,2013-12-13 19:02:00,
2013-12-13 14:17:00,53.9,29.0,30.16,SSE,154,4.0,-999.0,39,-99.99,,,0.00,weatherlink.com 1.10,2013-12-13 19:17:00,
2013-12-13 14:32:00,55.1,28.0,30.16,SSE,163,4.0,-999.0,36,-99.99,,,0.00,weatherlink.com 1.10,2013-12-13 19:32:00,
2013-12-13 14:47:00,54.8,29.0,30.15,SW,223,2.0,-999.0,37,-99.99,,,0.00,weatherlink.com 1.10,2013-12-13 19:47:00,
2013-12-13 15:02:00,55.0,28.0,30.16,South,184,4.0,-999.0,36,-99.99,,,0.00,weatherlink.com 1.10,2013-12-13 20:02:00,
2013-12-13 15:17:00,54.5,28.0,30.15,SSE,158,1.0,-999.0,37,-99.99,,,0.00,weatherlink.com 1.10,2013-12-13 20:17:00,
2013-12-13 15:32:00,54.4,28.0,30.14,SSE,148,0.0,-999.0,37,-99.99,,,0.00,weatherlink.com 1.10,2013-12-13 20:32:00,
2013-12-13 15:47:00,54.2,29.0,30.14,SSE,157,2.0,-999.0,38,-99.99,,,0.00,weatherlink.com 1.10,2013-12-13 20:47:00,
2013-12-13 16:02:00,53.4,28.0,30.14,SSE,159,4.0,-999.0,38,-99.99,,,0.00,weatherlink.com 1.10,2013-12-13 21:02:00,
2013-12-13 16:18:00,52.8,28.0,30.14,SE,125,0.0,-999.0,38,-99.99,,,0.00,weatherlink.com 1.10,2013-12-13 21:18:00,
2013-12-13 16:32:00,52.0,32.0,30.14,SE,125,0.0,-999.0,46,-99.99,,,0.00,weatherlink.com 1.10,2013-12-13 21:32:00,
2013-12-13 16:48:00,49.6,31.0,30.14,SE,125,0.0,-999.0,50,-99.99,,,0.00,weatherlink.com 1.10,2013-12-13 21:48:00,
2013-12-13 17:03:00,46.5,32.0,30.15,SE,125,1.0,-999.0,57,-99.99,,,0.00,weatherlink.com 1.10,2013-12-13 22:03:00,
2013-12-13 17:18:00,44.9,32.0,30.15,SE,125,0.0,-999.0,61,-99.99,,,0.00,weatherlink.com 1.10,2013-12-13 22:18:00,
2013-12-13 17:33:00,43.6,33.0,30.14,SE,125,1.0,-999.0,66,-99.99,,,0.00,weatherlink.com 1.10,2013-12-13 22:33:00,
2013-12-13 17:48:00,42.1,33.0,30.14,SE,125,0.0,-999.0,69,-99.99,,,0.00,weatherlink.com 1.10,2013-12-13 22:48:00,
2013-12-13 18:03:00,41.1,32.0,30.14,SE,125,1.0,-999.0,71,-99.99,,,0.00,weatherlink.com 1.10,2013-12-13 23:03:00,
2013-12-13 18:18:00,40.3,33.0,30.15,SE,125,0.0,-999.0,75,-99.99,,,0.00,weatherlink.com 1.10,2013-12-13 23:18:00,
2013-12-13 18:33:00,39.6,33.0,30.15,SE,125,0.0,-999.0,76,-99.99,,,0.00,weatherlink.com 1.10,2013-12-13 23:33:00,
2013-12-13 18:48:00,38.5,32.0,30.15,SE,125,1.0,-999.0,77,-99.99,,,0.00,weatherlink.com 1.10,2013-12-13 23:48:00,
2013-12-13 19:03:00,37.4,31.0,30.14,SE,125,1.0,-999.0,79,-99.99,,,0.00,weatherlink.com 1.10,2013-12-14 00:03:00,
2013-12-13 19:18:00,37.1,32.0,30.14,SE,125,1.0,-999.0,81,-99.99,,,0.00,weatherlink.com 1.10,2013-12-14 00:18:00,
2013-12-13 19:33:00,37.6,32.0,30.15,SE,125,1.0,-999.0,81,-99.99,,,0.00,weatherlink.com 1.10,2013-12-14 00:33:00,
2013-12-13 19:48:00,38.1,32.0,30.15,SE,125,1.0,-999.0,80,-99.99,,,0.00,weatherlink.com 1.10,2013-12-14 00:48:00,
2013-12-13 20:03:00,38.2,33.0,30.15,SE,125,0.0,-999.0,80,-99.99,,,0.00,weatherlink.com 1.10,2013-12-14 01:03:00,
2013-12-13 20:18:00,38.2,33.0,30.15,SE,125,0.0,-999.0,81,-99.99,,,0.00,weatherlink.com 1.10,2013-12-14 01:18:00,
2013-12-13 20:33:00,38.3,33.0,30.15,SE,125,0.0,-999.0,81,-99.99,,,0.00,weatherlink.com 1.10,2013-12-14 01:33:00,
2013-12-13 20:48:00,38.4,33.0,30.16,SE,125,0.0,-999.0,81,-99.99,,,0.00,weatherlink.com 1.10,2013-12-14 01:48:00,
2013-12-13 21:03:00,38.4,33.0,30.17,SE,125,0.0,-999.0,81,-99.99,,,0.00,weatherlink.com 1.10,2013-12-14 02:03:00,
2013-12-13 21:18:00,38.3,33.0,30.17,SE,125,0.0,-999.0,82,-99.99,,,0.00,weatherlink.com 1.10,2013-12-14 02:18:00,
2013-12-13 21:33:00,38.0,33.0,30.16,SE,125,0.0,-999.0,83,-99.99,,,0.00,weatherlink.com 1.10,2013-12-14 02:33:00,
2013-12-13 21:48:00,38.4,33.0,30.16,SE,125,0.0,-999.0,81,-99.99,,,0.00,weatherlink.com 1.10,2013-12-14 02:48:00,
2013-12-13 22:03:00,39.1,34.0,30.16,SE,125,0.0,-999.0,81,-99.99,,,0.00,weatherlink.com 1.10,2013-12-14 03:03:00,
2013-12-13 22:18:00,39.3,34.0,30.17,SE,125,0.0,-999.0,81,-99.99,,,0.00,weatherlink.com 1.10,2013-12-14 03:18:00,
2013-12-13 22:33:00,39.3,34.0,30.17,SE,125,0.0,-999.0,81,-99.99,,,0.00,weatherlink.com 1.10,2013-12-14 03:33:00,
2013-12-13 22:48:00,39.3,34.0,30.17,SE,125,0.0,-999.0,82,-99.99,,,0.00,weatherlink.com 1.10,2013-12-14 03:48:00,
2013-12-13 23:03:00,39.1,34.0,30.16,SE,125,1.0,-999.0,81,-99.99,,,0.00,weatherlink.com 1.10,2013-12-14 04:03:00,
2013-12-13 23:18:00,38.3,33.0,30.16,SE,125,0.0,-999.0,82,-99.99,,,0.00,weatherlink.com 1.10,2013-12-14 04:18:00,
2013-12-13 23:33:00,38.0,34.0,30.15,SE,125,0.0,-999.0,84,-99.99,,,0.00,weatherlink.com 1.10,2013-12-14 04:33:00,
2013-12-13 23:48:00,38.4,34.0,30.14,SE,125,2.0,-999.0,83,-99.99,,,0.00,weatherlink.com 1.10,2013-12-14 04:48:00,